Location: Viterbo
(42.4170°N, 12.1000°E)
Time: 22:02:50
(UTC+01:00)

ISS - Visible Passes

Search period start: 02 December 2023 00:00
Search period end: 12 December 2023 00:00
Orbit: 416 x 417 km, 51.6° (Epoch: 02 December)

Date Brightness Start Highest point End Pass type
(mag) Time Alt. Az. Time Alt. Az. Time Alt. Az.
02 Dec -2.8 17:30:07 10° NW 17:33:10 31° NNE 17:35:27 15° E visible
02 Dec -1.4 19:06:47 10° WNW 19:08:23 24° W 19:08:23 24° W visible
03 Dec -3.7 18:18:13 10° WNW 18:21:34 77° SW 18:22:30 44° SE visible
04 Dec -3.8 17:29:43 10° NW 17:33:03 64° NNE 17:36:23 10° ESE visible
04 Dec -1.0 19:07:16 10° W 19:09:28 16° SW 19:09:50 16° SW visible
05 Dec -1.7 18:18:09 10° WNW 18:21:04 27° SW 18:23:58 10° SSE visible
06 Dec -2.7 17:29:20 10° WNW 17:32:34 48° SW 17:35:48 10° SE visible
07 Dec -0.1 18:19:40 10° WSW 18:20:11 10° SW 18:20:41 10° SW visible
08 Dec -0.6 17:29:21 10° W 17:31:42 18° SW 17:34:03 10° S visible
